Location: Clarion
(42.7316°N, 93.7330°W)
Time: 08:39:02
(UTC+00:00)

SPOT 3 Rocket - Pass Details

Date: 22 April 2026
Orbit: 774 x 791 km, 98.5° (Epoch: 17 May)

Event Time Altitude Azimuth Distance (km) Brightness Sun altitude
Exits shadow 03:22:48 53° 113° (ESE) 961 3.6 -22.6°
Maximum altitude 03:23:38 61° 72° (ENE) 894 3.6 -22.7°
Drops below altitude 10° 03:28:44 10° 354° (N) 2,348 6.7 -23.4°
Sets 03:31:04 0° 351° (N) 3,278 7.6 -23.7°
